Regional Weather Roundup
Issued by NWS

Home | Current Version | Previous Version | Text Only | Print | Product List | Glossary On
Versions: 1 2 3 4 5 6 7 8 9 10 11 12 13 14 15 16 17 18 19 20 21 22 23 24 25 26 27 28 29 30 31 32 33 34 35 36 37 38 39 40 41 42 43 44 45 46 47 48 49 50
000
ASUS43 KMPX 272301
RWRMN
WEATHER ROUNDUP FOR MINNESOTA
NATIONAL WEATHER SERVICE TWIN CITIES/CHANHASSEN MN
500 PM CST TUE JAN 27 2015


NOTE: "FAIR" INDICATES FEW OR NO CLOUDS BELOW 12,000 FEET WITH NO
SIGNIFICANT WEATHER AND/OR OBSTRUCTIONS TO VISIBILITY. N/A MEANS
CURRENT SKY AND/OR WEATHER CONDITIONS ARE NOT AVAILABLE.

MNZ060>063-068>070-280000-
   Twin Cities Metro

CITY           SKY/WX    TMP DP  RH WIND       PRES   REMARKS
TWIN CITIES    CLOUDY    32  25  75 SE8       30.15S WCI  25
ST PAUL        CLOUDY    32  26  78 SE10      30.17S WCI  24
CRYSTAL        CLOUDY    33  26  75 SE9       30.13F WCI  25
BLAINE         CLOUDY    34  27  75 SE7       30.13F WCI  28
LAKEVILLE      CLOUDY    30  27  86 SE7       30.14S WCI  23
EDEN PRAIRIE   CLOUDY    33  26  75 SE10      30.12F WCI  25
SOUTH ST PAUL  CLOUDY    32  26  76 SE5       30.15S WCI  28
LAKE ELMO      CLOUDY    32  27  80 SE7       30.16R WCI  26
$$
MNZ001>005-007-008-013>017-022>024-027-028-280000-
   Northwest Minnesota

CITY           SKY/WX    TMP DP  RH WIND       PRES   REMARKS
BEMIDJI        CLOUDY    32  27  82 SE8       30.01R WCI  25
HALLOCK        CLOUDY    30  30 100 S13       29.95F WCI  20
ROSEAU         CLOUDY    30  27  86 SE5       30.00R WCI  25
WARROAD        CLOUDY    32  27  80 SE6       30.01S WCI  26
THIEF RVR FALL MOCLDY    34  28  80 SE6       29.98S WCI  29
CROOKSTON      MOCLDY    34  30  86 S14       29.98S WCI  24
FOSSTON        PTCLDY    34  28  80 SE5       29.98F WCI  30
DETROIT LAKES  MOCLDY    32  30  93 SE13      30.00F WCI  22
MOORHEAD       CLOUDY    34  34 100 S22       29.98F WCI  22
PARK RAPIDS    PTCLDY    33  27  78 S10       30.01F WCI  25
MAHNOMEN       FAIR      33  28  82 SE10      29.98S WCI  25
$$
MNZ006-009>011-018-025>026-280000-
   North Central Minnesota

CITY           SKY/WX    TMP DP  RH WIND       PRES   REMARKS
BAUDETTE       CLOUDY    32  25  75 SE6       30.01S WCI  26
FLAG ISLAND    FLURRIES  28  27  93 SE9       30.00F WCI  20
INTL FALLS     CLOUDY    30  24  78 SE7       30.05F WCI  23
WASKISH        CLOUDY    32  27  80 SE6       30.02S WCI  26
BIG FORK       CLOUDY    32  25  74 SE6       30.05F WCI  26
LONGVILLE      MOCLDY    32  27  80 SE9       30.05S WCI  24
GRAND RAPIDS   CLOUDY    30  23  74 SE7       30.06F WCI  23
CRANE LAKE     CLOUDY    27  25  93 CALM      30.11F
ORR            CLOUDY    27  21  80 SE5       30.06F WCI  21
COOK           CLOUDY    27  25  93 S5        30.10R WCI  21
WALKER         CLOUDY    32  26  78 SE9       30.02F WCI  24
$$
MNZ012-019>021-037-280000-
   Northeast Minnesota

CITY           SKY/WX    TMP DP  RH WIND       PRES   REMARKS
DULUTH         CLOUDY    28  22  78 S7        30.10S WCI  21
ELY            CLOUDY    27  23  86 S5        30.10R WCI  21
HIBBING        CLOUDY    30  22  72 S8        30.09R WCI  22
EVELETH        CLOUDY    28  23  80 S7        30.11R WCI  21
DULUTH HARBOR  CLOUDY    30  25  80 CALM      30.16S
TWO HARBORS    CLOUDY    30  25  80 CALM      30.12S
SILVER BAY     CLOUDY    28  23  80 S5        30.12S WCI  23
GRAND MARAIS     N/A     30  23  75 SW6       30.17R WCI  24
G MARAIS ARPRT   N/A     23  18  80 S5        30.10S WCI  17
$$
MNZ029>031-032-039>041-046>048-054>057-064-280000-
   West Central Minnesota

CITY           SKY/WX    TMP DP  RH WIND       PRES   REMARKS
FERGUS FALLS   CLOUDY    30  30 100 S20       30.03S WCI  18
WHEATON        CLOUDY    28  28 100 SE22      30.00F WCI  15
MORRIS         CLOUDY    30  30 100 SE22      30.01F WCI  17
ALEXANDRIA     CLOUDY    31  28  89 SE14      30.04F WCI  21
ELBOW LAKE     CLOUDY    31  29  95 SE23      30.00F WCI  17
WADENA         CLOUDY    30  27  86 S14       30.03F WCI  20
GLENWOOD       CLOUDY    30  28  93 SE10      30.05S WCI  21
APPLETON       CLOUDY    34  30  86 SE13G18   30.02F WCI  25
BENSON         CLOUDY    32  28  86 S14G21    30.04F WCI  22
ORTONVILLE     CLOUDY    32  30  93 SE10      30.00F WCI  24
MADISON        CLOUDY    37  36  93 SE12      30.01F
WILLMAR        CLOUDY    34  30  86 SE15      30.07F WCI  24
$$
MNZ033>034-036-042>043-049>051-058-059-280000-
   Central Minnesota

CITY           SKY/WX    TMP DP  RH WIND       PRES   REMARKS
ST CLOUD       CLOUDY    33  27  78 S9        30.10R WCI  25
SAUK CENTRE    CLOUDY    32  29  89 SE13G18   30.06F WCI  22
PAYNESVILLE    CLOUDY    30  28  90 E8        30.08F WCI  23
AITKIN         MOCLDY    34  27  75 S9        30.07S WCI  26
PINE RIVER     CLOUDY    30  27  86 S10       30.09R WCI  21
BRAINERD       CLOUDY    32  26  78 SE9       30.07F WCI  24
STAPLES        CLOUDY    30  27  86 SE8       30.05F WCI  23
LONG PRAIRIE   CLOUDY    32  28  86 SE15      30.06F WCI  22
LITTLE FALLS   CLOUDY    32  27  80 SE10      30.09S WCI  24
LITCHFIELD     CLOUDY    36  30  80 SE8       30.09S
BUFFALO        CLOUDY    33  27  78 SE5       30.13S WCI  28
MAPLE LAKE     CLOUDY    34  30  84 SE5       30.12S WCI  30
$$
MNZ037-044-045-052-053-280000-
   East Central Minnesota

CITY           SKY/WX    TMP DP  RH WIND       PRES   REMARKS
PRINCETON      CLOUDY    34  27  75 SE6       30.12S WCI  29
MORA           CLOUDY    32  25  74 SE6       30.14S WCI  26
CAMBRIDGE      CLOUDY    34  23  64 SE5       30.11S WCI  30
RUSH CITY      CLOUDY    31  24  77 SE6       30.14S WCI  25
MOOSE LAKE     CLOUDY    30  23  74 S3        30.10S
HINCKLEY       CLOUDY    32  27  80 S6        30.13S WCI  26
CLOQUET        CLOUDY    28  21  74 SE5       30.11R WCI  23
MCGREGOR       MOCLDY    32  27  80 SE9       30.09S WCI  24
$$
MNZ071>073-080-081-089-090-097-098-280000-
   Southwest Minnesota

CITY           SKY/WX    TMP DP  RH WIND       PRES   REMARKS
MONTEVIDEO     CLOUDY    34  32  93 S13G18    30.04F WCI  25
GRANITE FALLS  CLOUDY    34  31  90 E14       30.06F WCI  25
CANBY          PTCLDY    36  32  88 SE13      30.02S
MARSHALL       MOCLDY    37  32  81 SE14      30.04F
REDWOOD FALLS  CLOUDY    35  31  85 SE14      30.07F WCI  26
OLIVIA         CLOUDY    32  30  93 S13       30.06F WCI  22
PIPESTONE      CLEAR     37  37 100 SE12      29.99F
WINDOM         CLOUDY    37  34  87 SE12G18   30.06F
WORTHINGTON    PTCLDY    37  32  81 SE12      30.05S
JACKSON        CLOUDY    36  32  87 SE14      30.08F
TRACY          MOCLDY    38  34  85 SE12      30.04S
SLAYTON        PTCLDY    37  34  88 SE14      30.03F
$$
MNZ065>067-074>077-082>085-091>093-280000-
   South Central Minnesota

CITY           SKY/WX    TMP DP  RH WIND       PRES   REMARKS
MANKATO        CLOUDY    36  28  75 SE10      30.11F
NEW ULM        CLOUDY    34  30  86 SE12      30.09F WCI  25
ST JAMES       CLOUDY    36  32  87 SE12      30.11F
FAIRMONT       CLOUDY    36  28  75 SE12      30.10F
GLENCOE        CLOUDY    35  31  87 SE7       30.10F WCI  29
FARIBAULT      CLOUDY    34  27  75 SE10      30.14S WCI  26
OWATONNA       CLOUDY    32  27  80 SE8       30.13F WCI  25
WASECA         CLOUDY    32  28  86 SE10      30.13F WCI  24
ALBERT LEA     CLOUDY    34  28  80 S8        30.13S WCI  27
$$
MNZ078>079-086>088-094>096-280000-
   Southeast Minnesota

CITY           SKY/WX    TMP DP  RH WIND       PRES   REMARKS
ROCHESTER      CLOUDY    29  24  82 SE9       30.15F WCI  20
RED WING       CLOUDY    30  25  80 SE8       30.17R WCI  23
STANTON        CLOUDY    33  27  77 SE6       30.13S WCI  27
DODGE CENTER   CLOUDY    30  28  93 SE10      30.13F WCI  21
WINONA         CLOUDY    30  23  74 E6        30.20F WCI  24
AUSTIN         CLOUDY    30  28  93 SE7       30.14F WCI  23
PRESTON        CLOUDY    28  24  84 SE6       30.16F WCI  21
$$
ABBREVIATIONS USED IN REMARKS
   TC - TEMPERATURES IN CELSIUS
  WCI - WIND CHILL INDEX
   HX - HEAT INDEX
  VSB - VISIBILITY
$$


USA.gov is the U.S. government's official web portal to all federal, state and local government web resources and services.